SWR5XH LEPA-LSZH

Flight info

Callsign SWR5XH
Flight time 1h 36m
Altitude 36000
Route MEROS DCT LAPIT DCT CHELY DCT LUMAS DCT MAXIR DCT LUSOL DCT BODRU DCT OKTET DCT IRMAR DCT KINES DCT VANAS DCT MOBLO DCT LAMUR DCT KORED N871 BERSU
Aircraft A321/M-SDE3FGHIRWY/LB1

Departure

Time 2026-05-04 15:09
Airport Palma de Mallorca Airport (LEPA)

Arrival

Time 2026-05-04 16:46
Airport Zürich Airport (LSZH)
Time Latitude Longitude Altitude Speed Heading
2026-05-04 14:16 39.54713 2.73659 39 ft 0 kts 58°
2026-05-04 14:24 39.54713 2.73658 39 ft 0 kts 58°
2026-05-04 14:37 39.54713 2.73657 37 ft 0 kts 58°
2026-05-04 14:39 39.54712 2.73657 38 ft 0 kts 58°
2026-05-04 14:49 39.54712 2.73656 38 ft 0 kts 58°
2026-05-04 14:54 39.54704 2.73638 38 ft 4 kts 67°
2026-05-04 14:54 39.54698 2.73606 38 ft 4 kts 98°
2026-05-04 14:55 39.54707 2.73580 37 ft 2 kts 148°
2026-05-04 14:55 39.54708 2.73579 35 ft 0 kts 149°
2026-05-04 14:56 39.54709 2.73579 35 ft 0 kts 149°
2026-05-04 14:57 39.54709 2.73578 35 ft 0 kts 149°
2026-05-04 14:57 39.54707 2.73580 37 ft 2 kts 149°
2026-05-04 14:58 39.54670 2.73613 38 ft 10 kts 134°
2026-05-04 14:58 39.54671 2.73696 38 ft 12 kts 64°
2026-05-04 14:58 39.54710 2.73780 38 ft 10 kts 59°
2026-05-04 14:58 39.54736 2.73839 38 ft 13 kts 59°
2026-05-04 14:59 39.54794 2.73958 38 ft 11 kts 57°
2026-05-04 14:59 39.54843 2.73995 38 ft 9 kts 360°
2026-05-04 14:59 39.54956 2.74003 38 ft 9 kts 14°
2026-05-04 15:00 39.55018 2.73975 38 ft 9 kts 329°
2026-05-04 15:00 39.55069 2.73936 38 ft 9 kts 329°
2026-05-04 15:00 39.55153 2.73871 38 ft 19 kts 329°
2026-05-04 15:01 39.55298 2.73754 38 ft 8 kts 330°
2026-05-04 15:01 39.55339 2.73724 38 ft 6 kts 330°
2026-05-04 15:01 39.55370 2.73700 38 ft 6 kts 329°
2026-05-04 15:01 39.55431 2.73652 38 ft 14 kts 328°
2026-05-04 15:02 39.55517 2.73583 38 ft 12 kts 328°
2026-05-04 15:02 39.55584 2.73529 38 ft 10 kts 328°
2026-05-04 15:02 39.55646 2.73513 38 ft 8 kts 18°
2026-05-04 15:02 39.55684 2.73561 38 ft 7 kts 56°
2026-05-04 15:03 39.55708 2.73612 38 ft 6 kts 58°
2026-05-04 15:03 39.55738 2.73674 38 ft 11 kts 58°
2026-05-04 15:03 39.55785 2.73775 38 ft 15 kts 58°
2026-05-04 15:03 39.55840 2.73895 38 ft 4 kts 58°
2026-05-04 15:04 39.55863 2.73941 38 ft 0 kts 57°
2026-05-04 15:04 39.55875 2.73966 38 ft 6 kts 58°
2026-05-04 15:04 39.55908 2.74034 38 ft 12 kts 58°
2026-05-04 15:04 39.55946 2.74114 38 ft 12 kts 59°
2026-05-04 15:05 39.55988 2.74207 38 ft 11 kts 58°
2026-05-04 15:05 39.56045 2.74270 38 ft 10 kts 31°
2026-05-04 15:05 39.56095 2.74306 38 ft 8 kts 28°
2026-05-04 15:05 39.56120 2.74323 38 ft 0 kts 28°
2026-05-04 15:06 39.56121 2.74324 38 ft 0 kts 28°
2026-05-04 15:06 39.56132 2.74331 38 ft 7 kts 26°
2026-05-04 15:07 39.56225 2.74278 38 ft 7 kts 279°
2026-05-04 15:07 39.56216 2.74242 37 ft 5 kts 240°
2026-05-04 15:07 39.56216 2.74241 37 ft 0 kts 239°
2026-05-04 15:08 39.56200 2.74210 38 ft 13 kts 234°
2026-05-04 15:08 39.56051 2.73898 38 ft 74 kts 238°
2026-05-04 15:08 39.55675 2.73102 39 ft 130 kts 238°
2026-05-04 15:09 39.55131 2.71948 168 ft 160 kts 237°
2026-05-04 15:09 39.54571 2.70731 888 ft 157 kts 237°
2026-05-04 15:09 39.54004 2.69528 1546 ft 156 kts 237°
2026-05-04 15:10 39.52854 2.67109 2679 ft 166 kts 238°
2026-05-04 15:10 39.52211 2.65762 2888 ft 185 kts 238°
2026-05-04 15:10 39.50761 2.62714 3394 ft 206 kts 237°
2026-05-04 15:11 39.49968 2.61181 3821 ft 206 kts 227°
2026-05-04 15:11 39.48778 2.60113 4159 ft 214 kts 208°
2026-05-04 15:11 39.47385 2.59204 4257 ft 236 kts 208°
2026-05-04 15:11 39.45866 2.58215 4683 ft 249 kts 208°
2026-05-04 15:12 39.44276 2.57295 5319 ft 254 kts 197°
2026-05-04 15:12 39.42498 2.57187 5963 ft 263 kts 172°
2026-05-04 15:12 39.40815 2.58207 6583 ft 277 kts 143°
2026-05-04 15:12 39.39680 2.60267 7171 ft 292 kts 112°
2026-05-04 15:13 39.39471 2.62907 7740 ft 302 kts 89°
2026-05-04 15:13 39.39614 2.65638 8352 ft 306 kts 88°
2026-05-04 15:13 39.39773 2.68396 8955 ft 309 kts 88°
2026-05-04 15:13 39.39936 2.71183 9556 ft 313 kts 88°
2026-05-04 15:14 39.40096 2.74002 10109 ft 317 kts 88°
2026-05-04 15:14 39.40257 2.76923 10270 ft 336 kts 88°
2026-05-04 15:14 39.40420 2.80021 10406 ft 354 kts 88°
2026-05-04 15:14 39.40589 2.83271 10550 ft 370 kts 88°
2026-05-04 15:15 39.40763 2.86626 10971 ft 376 kts 88°
2026-05-04 15:15 39.40939 2.90015 11492 ft 380 kts 88°
2026-05-04 15:15 39.41113 2.93385 12010 ft 382 kts 88°
2026-05-04 15:16 39.41471 3.00298 13078 ft 388 kts 88°
2026-05-04 15:16 39.41653 3.03792 13609 ft 391 kts 88°
2026-05-04 15:16 39.42012 3.10910 14541 ft 397 kts 88°
2026-05-04 15:17 39.42189 3.14497 14961 ft 401 kts 88°
2026-05-04 15:17 39.42567 3.21765 15786 ft 410 kts 84°
2026-05-04 15:17 39.43143 3.25338 16176 ft 414 kts 73°
2026-05-04 15:18 39.44223 3.28804 16575 ft 417 kts 62°
2026-05-04 15:18 39.45688 3.32063 16962 ft 421 kts 58°
2026-05-04 15:18 39.47197 3.35321 17358 ft 424 kts 58°
2026-05-04 15:19 39.50265 3.41983 18136 ft 431 kts 58°
2026-05-04 15:19 39.51779 3.45282 18453 ft 434 kts 58°
2026-05-04 15:19 39.54893 3.52088 19133 ft 438 kts 58°
2026-05-04 15:20 39.56450 3.55497 19423 ft 441 kts 58°
2026-05-04 15:20 39.58016 3.58928 19701 ft 444 kts 58°
2026-05-04 15:20 39.59570 3.62334 19977 ft 447 kts 58°
2026-05-04 15:20 39.61157 3.65817 20254 ft 449 kts 58°
2026-05-04 15:21 39.62750 3.69315 20527 ft 452 kts 58°
2026-05-04 15:21 39.64354 3.72837 20806 ft 455 kts 58°
2026-05-04 15:21 39.67593 3.79952 21361 ft 461 kts 59°
2026-05-04 15:22 39.69225 3.83543 21651 ft 463 kts 59°
2026-05-04 15:22 39.70864 3.87159 21931 ft 466 kts 59°
2026-05-04 15:22 39.74159 3.94465 22519 ft 472 kts 59°
2026-05-04 15:23 39.75820 3.98149 22836 ft 474 kts 59°
2026-05-04 15:23 39.77489 4.01852 23135 ft 476 kts 59°
2026-05-04 15:23 39.79165 4.05578 23422 ft 479 kts 59°
2026-05-04 15:23 39.80850 4.09333 23676 ft 482 kts 59°
2026-05-04 15:24 39.84764 4.16412 24159 ft 483 kts 42°
2026-05-04 15:24 39.90175 4.21480 24635 ft 478 kts 21°
2026-05-04 15:25 39.93252 4.23063 24858 ft 474 kts 11°
2026-05-04 15:25 39.96454 4.23992 25125 ft 470 kts
2026-05-04 15:25 39.99679 4.24733 25379 ft 472 kts
2026-05-04 15:26 40.06176 4.26254 25825 ft 476 kts
2026-05-04 15:26 40.09443 4.27031 26038 ft 479 kts
2026-05-04 15:26 40.16029 4.28596 26471 ft 483 kts
2026-05-04 15:27 40.19348 4.29379 26698 ft 486 kts
2026-05-04 15:27 40.26027 4.30956 27125 ft 490 kts
2026-05-04 15:28 40.32767 4.32556 27537 ft 494 kts
2026-05-04 15:28 40.36157 4.33360 27741 ft 497 kts
2026-05-04 15:28 40.42986 4.34980 28178 ft 500 kts
2026-05-04 15:29 40.46422 4.35800 28378 ft 502 kts
2026-05-04 15:30 40.60281 4.39108 29079 ft 510 kts
2026-05-04 15:30 40.70811 4.41631 29519 ft 515 kts
2026-05-04 15:31 40.77876 4.43314 29855 ft 517 kts
2026-05-04 15:31 40.81417 4.44167 30044 ft 517 kts
2026-05-04 15:32 40.92016 4.46738 30611 ft 516 kts
2026-05-04 15:32 40.99070 4.48453 30995 ft 515 kts
2026-05-04 15:33 41.06104 4.50158 31419 ft 513 kts
2026-05-04 15:34 41.16589 4.52709 32072 ft 510 kts
2026-05-04 15:34 41.20074 4.53560 32261 ft 509 kts
2026-05-04 15:34 41.27044 4.55265 32657 ft 508 kts
2026-05-04 15:35 41.33988 4.56966 33089 ft 506 kts
2026-05-04 15:35 41.37450 4.57817 33239 ft 506 kts
2026-05-04 15:35 41.40917 4.58671 33403 ft 507 kts
2026-05-04 15:36 41.47847 4.60372 33769 ft 506 kts
2026-05-04 15:36 41.51309 4.61220 33945 ft 506 kts
2026-05-04 15:36 41.54772 4.62071 34099 ft 506 kts
2026-05-04 15:37 41.58232 4.62924 34257 ft 505 kts
2026-05-04 15:37 41.61680 4.63774 34414 ft 504 kts
2026-05-04 15:37 41.65129 4.64626 34576 ft 503 kts
2026-05-04 15:37 41.68573 4.65479 34756 ft 503 kts
2026-05-04 15:38 41.71979 4.66598 34924 ft 507 kts 13°
2026-05-04 15:38 41.75271 4.68353 35084 ft 512 kts 22°
2026-05-04 15:38 41.78379 4.70691 35224 ft 514 kts 28°
2026-05-04 15:38 41.81440 4.73168 35363 ft 513 kts 28°
2026-05-04 15:39 41.84497 4.75640 35498 ft 513 kts 27°
2026-05-04 15:39 41.87558 4.78107 35628 ft 513 kts 27°
2026-05-04 15:39 41.93662 4.83013 35924 ft 511 kts 27°
2026-05-04 15:40 41.96708 4.85467 35946 ft 510 kts 27°
2026-05-04 15:40 42.02780 4.90370 35948 ft 509 kts 27°
2026-05-04 15:41 42.08843 4.95287 35946 ft 509 kts 27°
2026-05-04 15:41 42.14886 5.00205 35947 ft 507 kts 27°
2026-05-04 15:42 42.20915 5.05121 35955 ft 506 kts 27°
2026-05-04 15:42 42.26944 5.10041 35959 ft 506 kts 27°
2026-05-04 15:43 42.32973 5.14972 35979 ft 507 kts 27°
2026-05-04 15:43 42.39002 5.19911 35987 ft 506 kts 27°
2026-05-04 15:44 42.45024 5.24859 35986 ft 506 kts 27°
2026-05-04 15:44 42.51043 5.29814 36009 ft 506 kts 27°
2026-05-04 15:45 42.57062 5.34785 35982 ft 506 kts 27°
2026-05-04 15:45 42.63074 5.39762 35989 ft 506 kts 27°
2026-05-04 15:46 42.69083 5.44744 35992 ft 506 kts 27°
2026-05-04 15:46 42.75094 5.49739 35998 ft 506 kts 27°
2026-05-04 15:47 42.81099 5.54747 36003 ft 506 kts 27°
2026-05-04 15:47 42.87106 5.59755 36002 ft 506 kts 27°
2026-05-04 15:48 42.93110 5.64779 36027 ft 506 kts 28°
2026-05-04 15:48 43.01082 5.71486 36008 ft 505 kts 27°
2026-05-04 15:49 43.07068 5.76520 36024 ft 505 kts 27°
2026-05-04 15:49 43.13052 5.81558 36056 ft 505 kts 27°
2026-05-04 15:50 43.19029 5.86619 36056 ft 505 kts 28°
2026-05-04 15:50 43.24992 5.91683 36053 ft 504 kts 28°
2026-05-04 15:51 43.30956 5.96739 36069 ft 504 kts 28°
2026-05-04 15:51 43.36996 6.01578 36064 ft 499 kts 19°
2026-05-04 15:52 43.43525 6.04328 36046 ft 485 kts
2026-05-04 15:52 43.50185 6.05128 36054 ft 480 kts 357°
2026-05-04 15:53 43.56853 6.05791 36047 ft 481 kts 357°
2026-05-04 15:53 43.63525 6.06466 36039 ft 481 kts 357°
2026-05-04 15:54 43.70201 6.07138 36052 ft 481 kts 358°
2026-05-04 15:54 43.76863 6.08359 36051 ft 490 kts 10°
2026-05-04 15:55 43.83228 6.11997 36044 ft 498 kts 21°
2026-05-04 15:55 43.89447 6.16246 36060 ft 498 kts 21°
2026-05-04 15:56 43.95660 6.20468 36059 ft 497 kts 21°
2026-05-04 15:56 44.01872 6.24704 36064 ft 497 kts 22°
2026-05-04 15:57 44.08069 6.28961 36079 ft 497 kts 22°
2026-05-04 15:57 44.14265 6.33228 36074 ft 496 kts 22°
2026-05-04 15:58 44.20448 6.37498 36069 ft 496 kts 22°
2026-05-04 15:58 44.26627 6.41758 36090 ft 495 kts 22°
2026-05-04 15:59 44.32802 6.46017 36091 ft 495 kts 22°
2026-05-04 15:59 44.38957 6.50301 36081 ft 494 kts 22°
2026-05-04 16:00 44.45103 6.54588 36117 ft 493 kts 22°
2026-05-04 16:00 44.51237 6.58868 36123 ft 492 kts 22°
2026-05-04 16:01 44.57361 6.63129 36122 ft 491 kts 22°
2026-05-04 16:01 44.63471 6.67404 36123 ft 491 kts 22°
2026-05-04 16:02 44.69582 6.71695 36135 ft 491 kts 22°
2026-05-04 16:03 44.78872 6.77533 36132 ft 482 kts
2026-05-04 16:03 44.85373 6.78677 36137 ft 468 kts 352°
2026-05-04 16:04 44.91897 6.78256 36139 ft 466 kts 351°
2026-05-04 16:04 45.01608 6.77621 36148 ft 466 kts 351°
2026-05-04 16:05 45.08092 6.77193 36156 ft 467 kts 351°
2026-05-04 16:06 45.17817 6.76540 36136 ft 466 kts 351°
2026-05-04 16:07 45.30750 6.75679 36132 ft 464 kts 352°
2026-05-04 16:08 45.43656 6.74841 36131 ft 464 kts 352°
2026-05-04 16:09 45.59744 6.73732 36132 ft 463 kts 352°
2026-05-04 16:10 45.72595 6.72854 36088 ft 463 kts 352°
2026-05-04 16:11 45.82231 6.73572 36094 ft 474 kts 11°
2026-05-04 16:11 45.85362 6.75129 36059 ft 479 kts 21°
2026-05-04 16:12 45.94530 6.81106 35311 ft 481 kts 21°
2026-05-04 16:12 46.03631 6.87054 34581 ft 482 kts 21°
2026-05-04 16:13 46.09730 6.91067 34093 ft 482 kts 22°
2026-05-04 16:13 46.15861 6.95121 33541 ft 480 kts 22°
2026-05-04 16:14 46.21864 6.99096 32995 ft 476 kts 22°
2026-05-04 16:14 46.27860 7.03052 32471 ft 471 kts 23°
2026-05-04 16:15 46.36733 7.08945 31694 ft 465 kts 24°
2026-05-04 16:16 46.42568 7.12829 30935 ft 458 kts 25°
2026-05-04 16:16 46.51169 7.18567 29238 ft 448 kts 25°
2026-05-04 16:17 46.56770 7.22325 28176 ft 439 kts 25°
2026-05-04 16:18 46.64892 7.27779 27123 ft 411 kts 25°
2026-05-04 16:18 46.67446 7.29480 27016 ft 400 kts 25°
2026-05-04 16:19 46.75362 7.34824 26693 ft 429 kts 25°
2026-05-04 16:19 46.80795 7.38521 26224 ft 429 kts 25°
2026-05-04 16:20 46.87705 7.46254 24549 ft 415 kts 54°
2026-05-04 16:20 46.91260 7.52831 23438 ft 410 kts 53°
2026-05-04 16:21 46.96608 7.62677 21012 ft 418 kts 52°
2026-05-04 16:22 47.00213 7.69339 19884 ft 414 kts 52°
2026-05-04 16:22 47.05513 7.79167 18317 ft 405 kts 52°
2026-05-04 16:23 47.10684 7.88774 16623 ft 394 kts 52°
2026-05-04 16:24 47.16128 8.02170 14678 ft 375 kts 66°
2026-05-04 16:25 47.18330 8.09043 13706 ft 369 kts 66°
2026-05-04 16:26 47.22610 8.22510 12362 ft 360 kts 67°
2026-05-04 16:26 47.25805 8.32395 11583 ft 352 kts 65°
2026-05-04 16:27 47.27919 8.38747 10843 ft 341 kts 66°
2026-05-04 16:28 47.30882 8.47743 10247 ft 305 kts 66°
2026-05-04 16:28 47.33546 8.55924 9619 ft 293 kts 66°
2026-05-04 16:29 47.36931 8.66287 7739 ft 260 kts 67°
2026-05-04 16:30 47.38971 8.72591 6575 ft 252 kts 66°
2026-05-04 16:31 47.40454 8.77178 5902 ft 234 kts 65°
2026-05-04 16:31 47.42342 8.83017 5774 ft 184 kts 65°
2026-05-04 16:32 47.43946 8.87988 5574 ft 178 kts 64°
2026-05-04 16:33 47.45976 8.89645 5418 ft 176 kts 359°
2026-05-04 16:33 47.48411 8.89407 5266 ft 175 kts 354°
2026-05-04 16:34 47.50832 8.89075 5115 ft 174 kts 354°
2026-05-04 16:34 47.51993 8.88614 5039 ft 173 kts 336°
2026-05-04 16:35 47.55315 8.86332 4999 ft 197 kts 334°
2026-05-04 16:35 47.59386 8.83444 4981 ft 221 kts 334°
2026-05-04 16:36 47.60766 8.82466 4892 ft 218 kts 334°
2026-05-04 16:36 47.63484 8.80507 4068 ft 217 kts 333°
2026-05-04 16:37 47.66344 8.80334 3986 ft 221 kts 32°
2026-05-04 16:37 47.67346 8.82043 4242 ft 224 kts 66°
2026-05-04 16:37 47.66856 8.86342 4753 ft 224 kts 134°
2026-05-04 16:38 47.63977 8.87508 4978 ft 223 kts 190°
2026-05-04 16:39 47.59449 8.85991 4987 ft 222 kts 194°
2026-05-04 16:39 47.56461 8.84948 4554 ft 219 kts 194°
2026-05-04 16:40 47.53482 8.83922 4493 ft 221 kts 193°
2026-05-04 16:40 47.50473 8.82908 4500 ft 222 kts 193°
2026-05-04 16:41 47.47465 8.81869 4503 ft 221 kts 198°
2026-05-04 16:41 47.44461 8.77265 4330 ft 204 kts 257°
2026-05-04 16:42 47.44628 8.71375 3550 ft 186 kts 277°
2026-05-04 16:43 47.44891 8.67751 3041 ft 164 kts 276°
2026-05-04 16:43 47.45117 8.64612 2591 ft 147 kts 276°
2026-05-04 16:43 47.45223 8.63136 2376 ft 143 kts 277°
2026-05-04 16:44 47.45646 8.57281 1510 ft 142 kts 275°
2026-05-04 16:45 47.45810 8.54923 1388 ft 50 kts 277°
2026-05-04 16:46 47.45800 8.54392 1385 ft 14 kts 252°
2026-05-04 16:46 47.45646 8.54238 1382 ft 14 kts 157°
2026-05-04 16:47 47.45582 8.54427 1385 ft 11 kts 109°
2026-05-04 16:47 47.45504 8.54762 1391 ft 23 kts 108°
2026-05-04 16:48 47.45349 8.55364 1407 ft 21 kts 118°
2026-05-04 16:48 47.45290 8.55521 1410 ft 17 kts 120°
2026-05-04 16:49 47.45297 8.55694 1407 ft 7 kts
2026-05-04 16:49 47.45345 8.55700 1410 ft 2 kts
2026-05-04 16:50 47.45351 8.55701 1409 ft 0 kts